TimeCDT,TemperatureF,Dew PointF,Humidity,Sea Level PressureIn,VisibilityMPH,Wind Direction,Wind SpeedMPH,Gust SpeedMPH,PrecipitationIn,Events,Conditions,WindDirDegrees,DateUTC
12:54 AM,50.0,48.0,93,30.00,8.0,East,3.5,-,N/A,,Clear,90,2013-09-25 05:54:00
1:54 AM,48.9,46.9,93,30.01,6.0,Calm,Calm,-,N/A,,Clear,0,2013-09-25 06:54:00
2:54 AM,48.0,46.0,93,30.01,3.0,Calm,Calm,-,N/A,,Clear,0,2013-09-25 07:54:00
2:59 AM,48.2,46.4,93,30.01,1.8,Calm,Calm,-,N/A,,Clear,0,2013-09-25 07:59:00
3:04 AM,46.4,46.4,100,30.00,0.8,ENE,3.5,-,N/A,,Clear,60,2013-09-25 08:04:00
3:10 AM,46.4,44.6,93,30.00,1.2,ENE,3.5,-,N/A,,Clear,60,2013-09-25 08:10:00
3:14 AM,46.4,44.6,93,30.00,3.0,ENE,3.5,-,N/A,,Clear,60,2013-09-25 08:14:00
3:54 AM,46.9,45.0,93,30.01,3.0,East,3.5,-,N/A,,Clear,80,2013-09-25 08:54:00
4:54 AM,46.0,45.0,96,30.02,4.0,ENE,3.5,-,N/A,,Clear,60,2013-09-25 09:54:00
5:05 AM,44.6,44.6,100,30.02,2.5,ENE,3.5,-,N/A,,Clear,60,2013-09-25 10:05:00
5:15 AM,46.4,44.6,93,30.02,3.0,ENE,3.5,-,N/A,,Clear,70,2013-09-25 10:15:00
5:54 AM,45.0,43.0,93,30.03,3.0,East,4.6,-,N/A,,Clear,80,2013-09-25 10:54:00
6:24 AM,44.6,42.8,93,30.02,3.0,ENE,3.5,-,N/A,,Scattered Clouds,60,2013-09-25 11:24:00
6:40 AM,44.6,42.8,93,30.02,2.5,ENE,3.5,-,N/A,,Scattered Clouds,60,2013-09-25 11:40:00
6:45 AM,42.8,42.8,100,30.02,1.0,ENE,4.6,-,N/A,,Mist,60,2013-09-25 11:45:00
6:52 AM,42.8,42.8,100,30.03,0.2,ENE,3.5,-,N/A,Fog,Fog,60,2013-09-25 11:52:00
6:54 AM,43.0,42.1,97,30.04,0.2,NE,3.5,-,N/A,Fog,Fog,50,2013-09-25 11:54:00
7:54 AM,45.0,44.1,97,30.05,0.2,Calm,Calm,-,N/A,Fog,Fog,0,2013-09-25 12:54:00
8:25 AM,48.2,46.4,93,30.02,1.2,East,4.6,-,N/A,,Mostly Cloudy,90,2013-09-25 13:25:00
8:30 AM,48.2,46.4,93,30.03,2.5,East,4.6,-,N/A,,Scattered Clouds,90,2013-09-25 13:30:00
8:38 AM,48.2,48.2,100,30.03,3.0,East,4.6,-,N/A,,Partly Cloudy,100,2013-09-25 13:38:00
8:54 AM,50.0,48.9,96,30.04,4.0,East,5.8,-,N/A,,Clear,100,2013-09-25 13:54:00
9:54 AM,57.0,50.0,77,30.04,10.0,ESE,5.8,-,N/A,,Clear,110,2013-09-25 14:54:00
10:54 AM,61.0,48.9,64,30.04,10.0,ESE,6.9,-,N/A,,Clear,110,2013-09-25 15:54:00
11:40 AM,62.6,48.2,59,30.03,10.0,South,6.9,-,N/A,,Mostly Cloudy,180,2013-09-25 16:40:00
11:50 AM,64.4,48.2,56,30.03,10.0,ESE,5.8,-,N/A,,Scattered Clouds,110,2013-09-25 16:50:00
11:54 AM,64.9,48.9,56,30.04,10.0,Variable,5.8,-,N/A,,Scattered Clouds,0,2013-09-25 16:54:00
12:54 PM,64.9,48.0,54,30.02,10.0,ESE,8.1,-,N/A,,Clear,120,2013-09-25 17:54:00
1:54 PM,66.9,48.9,52,30.00,10.0,SE,8.1,-,N/A,,Clear,140,2013-09-25 18:54:00
2:54 PM,69.1,48.0,47,29.99,10.0,SSE,6.9,-,N/A,,Clear,150,2013-09-25 19:54:00
3:54 PM,69.1,46.9,45,29.98,10.0,SE,10.4,-,N/A,,Clear,130,2013-09-25 20:54:00
4:54 PM,69.1,48.0,47,29.97,10.0,East,9.2,-,N/A,,Clear,90,2013-09-25 21:54:00
5:54 PM,66.9,48.9,52,29.97,10.0,ESE,11.5,-,N/A,,Clear,110,2013-09-25 22:54:00
6:54 PM,61.0,48.9,64,29.99,10.0,East,5.8,-,N/A,,Clear,100,2013-09-25 23:54:00
7:54 PM,57.9,48.9,72,29.99,10.0,ESE,4.6,-,N/A,,Clear,110,2013-09-26 00:54:00
8:54 PM,55.9,48.9,77,30.00,10.0,ESE,4.6,-,N/A,,Clear,110,2013-09-26 01:54:00
9:54 PM,55.0,48.0,77,30.00,10.0,ESE,3.5,-,N/A,,Clear,110,2013-09-26 02:54:00
10:54 PM,53.1,48.0,83,30.01,10.0,East,4.6,-,N/A,,Clear,100,2013-09-26 03:54:00
11:54 PM,52.0,48.0,86,30.01,9.0,ESE,5.8,-,N/A,,Clear,120,2013-09-26 04:54:00